GW1826 Weather Reports


time (UTC)temp
C
wind
direction
speed
KPH
gust
KPH
rain 1hr
cm
rain 24hr
cm
rain mn
cm
humidity
%
barometer
mb
20260506123019 11 124 9.7 25.7 0.00 0.00 0.00 86 1018.2
20260506122507 11 147 8.0 22.5 0.00 0.00 0.00 86 1018.2
20260506122012 11 184 4.8 19.3 0.00 0.00 0.00 86 1018.2
20260506121524 11 105 4.8 19.3 0.00 0.00 0.00 86 1018.1
20260506121006 11 138 8.0 19.3 0.00 0.00 0.00 86 1018.0
20260506120507 11 184 8.0 20.9 0.00 0.00 0.00 85 1018.0
20260506120025 11 136 3.2 20.9 0.00 0.00 0.00 85 1017.8
20260506115514 11 148 3.2 19.3 0.00 0.00 0.00 86 1017.7
20260506115007 11 96 6.4 22.5 0.00 0.00 0.00 85 1017.6
20260506114521 11 155 9.7 22.5 0.00 0.00 0.00 86 1017.7
20260506114012 11 169 6.4 19.3 0.00 0.00 0.00 86 1017.6
20260506113508 11 157 8.0 22.5 0.00 0.00 0.00 86 1017.6
20260506113032 11 168 4.8 22.5 0.00 0.00 0.00 86 1017.6
20260506112508 11 163 6.4 20.9 0.00 0.00 0.00 86 1017.6
20260506112010 11 104 8.0 20.9 0.00 0.00 0.00 86 1017.6
20260506111521 11 167 3.2 25.7 0.00 0.00 0.00 86 1017.6
20260506111008 11 142 9.7 25.7 0.00 0.00 0.00 86 1017.6
20260506110513 11 174 3.2 16.1 0.00 0.00 0.00 86 1017.5
20260506110018 11 216 4.8 16.1 0.00 0.00 0.00 86 1017.5
20260506105506 11 206 6.4 17.7 0.00 0.00 0.00 86 1017.3
20260506105011 11 161 6.4 24.1 0.00 0.00 0.00 86 1017.3
20260506104528 11 175 8.0 24.1 0.00 0.00 0.00 86 1017.3
20260506104007 11 144 3.2 24.1 0.00 0.00 0.00 86 1017.1
20260506103507 11 168 8.0 22.5 0.00 0.00 0.00 86 1017.1
20260506103026 11 91 4.8 16.1 0.00 0.00 0.00 86 1017.0
20260506102507 11 154 6.4 22.5 0.00 0.00 0.00 86 1017.0
20260506102011 11 192 8.0 22.5 0.00 0.00 0.00 85 1016.9
20260506101532 11 105 4.8 17.7 0.00 0.00 0.00 86 1016.8
20260506101007 11 200 6.4 16.1 0.00 0.00 0.00 86 1016.8
20260506100504 11 117 3.2 14.5 0.00 0.00 0.00 85 1016.8
20260506100022 11 111 4.8 16.1 0.00 0.00 0.00 85 1016.8
20260506095510 11 136 8.0 20.9 0.00 0.00 0.00 85 1016.7
20260506095009 11 169 8.0 20.9 0.00 0.00 0.00 85 1016.6
20260506094526 11 138 8.0 20.9 0.00 0.00 0.00 85 1016.7
20260506094010 11 186 6.4 20.9 0.00 0.00 0.00 85 1016.6
20260506093511 11 121 4.8 17.7 0.00 0.00 0.00 85 1016.6
20260506093031 11 195 8.0 17.7 0.00 0.00 0.00 85 1016.7
20260506092506 11 128 4.8 17.7 0.00 0.00 0.00 85 1016.6
20260506092011 11 113 3.2 14.5 0.00 0.00 0.00 85 1016.5
20260506091524 11 110 3.2 14.5 0.00 0.00 0.00 85 1016.5
20260506091012 11 186 4.8 16.1 0.00 0.00 0.00 84 1016.5
20260506090513 11 175 6.4 16.1 0.00 0.00 0.00 85 1016.5
20260506090014 11 202 1.6 20.9 0.00 0.00 0.00 84 1016.6
20260506085508 11 141 9.7 20.9 0.00 0.00 0.00 84 1016.6
20260506085002 11 153 6.4 20.9 0.00 0.00 0.00 84 1016.5
20260506084508 11 84 6.4 17.7 0.00 0.00 0.00 84 1016.5
20260506084004 11 135 4.8 16.1 0.00 0.00 0.00 84 1016.4
20260506083504 11 135 4.8 17.7 0.00 0.00 0.00 84 1016.5
20260506083007 11 175 9.7 17.7 0.00 0.00 0.00 84 1016.4
20260506082511 11 109 4.8 22.5 0.00 0.00 0.00 84 1016.4
20260506082004 12 102 8.0 22.5 0.00 0.00 0.00 84 1016.4
20260506081512 12 132 4.8 16.1 0.00 0.00 0.00 84 1016.3
20260506081005 12 152 4.8 16.1 0.00 0.00 0.00 84 1016.3
20260506080504 12 216 6.4 14.5 0.00 0.00 0.00 84 1016.2
20260506073504 12 219 4.8 14.5 0.00 0.00 0.00 83 1015.8
20260506073014 12 165 4.8 16.1 0.00 0.00 0.00 83 1015.9
20260506072507 12 173 3.2 16.1 0.00 0.00 0.00 82 1015.9
20260506072007 12 163 6.4 17.7 0.00 0.00 0.00 82 1015.9
20260506071517 12 145 8.0 17.7 0.00 0.00 0.00 82 1015.8
20260506071010 12 159 4.8 14.5 0.00 0.00 0.00 82 1015.8
20260506070505 12 187 4.8 17.7 0.00 0.00 0.00 82 1015.9
20260506062503 13 166 4.8 22.5 0.00 0.00 0.00 81 1015.5
20260506062008 13 123 6.4 22.5 0.00 0.00 0.00 80 1015.4
20260506061522 13 150 4.8 16.1 0.00 0.00 0.00 80 1015.4
20260506061004 13 154 4.8 22.5 0.00 0.00 0.00 80 1015.4
20260506060502 13 173 8.0 22.5 0.00 0.00 0.00 80 1015.4
20260506051006 13 67 6.4 19.3 0.00 0.00 0.00 79 1015.5
20260506050507 13 138 6.4 17.7 0.00 0.00 0.00 79 1015.4
20260506045003 13 164 6.4 17.7 0.00 0.00 0.00 79 1015.3
20260506044512 13 180 3.2 17.7 0.00 0.00 0.00 79 1015.3
20260506044004 13 179 4.8 11.3 0.00 0.00 0.00 78 1015.1
20260506043510 13 130 1.6 11.3 0.00 0.00 0.00 79 1015.1
20260506043018 13 132 1.6 17.7 0.00 0.00 0.00 78 1015.1
20260506042506 13 173 6.4 25.7 0.00 0.00 0.00 78 1015.0
20260506042009 13 169 4.8 25.7 0.00 0.00 0.00 78 1015.0
20260506041518 13 100 4.8 19.3 0.00 0.00 0.00 77 1014.9
20260506041011 13 131 4.8 20.9 0.00 0.00 0.00 77 1014.9
20260506040503 13 176 3.2 20.9 0.00 0.00 0.00 78 1014.9
20260506040007 13 161 4.8 17.7 0.00 0.00 0.00 77 1014.7
20260506035503 13 186 6.4 22.5 0.00 0.00 0.00 77 1014.7
20260506035007 13 169 4.8 22.5 0.00 0.00 0.00 77 1014.6
20260506034511 14 177 4.8 16.1 0.00 0.00 0.00 77 1014.5
20260506034007 14 104 4.8 20.9 0.00 0.00 0.00 78 1014.5
20260506033509 14 142 6.4 20.9 0.00 0.00 0.00 78 1014.6
20260506033026 14 173 8.0 22.5 0.00 0.00 0.00 78 1014.5
20260506032507 14 205 4.8 22.5 0.00 0.00 0.00 78 1014.4
20260506032007 14 195 8.0 19.3 0.00 0.00 0.00 78 1014.3
20260506031539 14 134 4.8 20.9 0.00 0.00 0.00 78 1014.2
20260506031006 14 207 8.0 25.7 0.00 0.00 0.00 78 1014.2
20260506030508 14 145 9.7 24.1 0.00 0.00 0.00 78 1014.2
20260506030011 14 192 6.4 19.3 0.00 0.00 0.00 78 1014.1
20260506025504 14 206 4.8 20.9 0.00 0.00 0.00 78 1014.1
20260506025010 14 184 6.4 20.9 0.00 0.00 0.00 78 1014.1
20260506024524 14 127 6.4 20.9 0.00 0.00 0.00 78 1014.2
20260506024007 14 113 9.7 27.4 0.00 0.00 0.00 78 1014.1
20260506023506 14 105 8.0 27.4 0.00 0.00 0.00 78 1014.2
20260506023015 14 190 9.7 25.7 0.00 0.00 0.00 78 1014.3
20260506022509 14 163 6.4 22.5 0.00 0.00 0.00 77 1014.3
20260506022011 15 169 6.4 22.5 0.00 0.00 0.00 78 1014.3
20260506021516 15 113 8.0 22.5 0.00 0.00 0.00 78 1014.3
20260506021011 15 148 8.0 22.5 0.00 0.00 0.00 78 1014.3
20260506020503 15 167 6.4 19.3 0.00 0.00 0.00 78 1014.3
20260506020016 15 139 6.4 19.3 0.00 0.00 0.00 78 1014.5
20260506015510 15 169 4.8 19.3 0.00 0.00 0.00 78 1014.4
20260506015005 15 199 3.2 20.9 0.00 0.00 0.00 78 1014.4
20260506014510 15 196 6.4 20.9 0.00 0.00 0.00 77 1014.4
20260506014006 15 228 9.7 19.3 0.00 0.00 0.00 77 1014.3
20260506013505 15 198 8.0 24.1 0.00 0.00 0.00 76 1014.4
20260506013007 15 56 8.0 24.1 0.00 0.00 0.00 76 1014.3
20260506012504 16 238 6.4 19.3 0.00 0.00 0.00 76 1014.2
20260506012004 16 128 8.0 19.3 0.00 0.00 0.00 75 1014.3
20260506011515 16 120 3.2 20.9 0.00 0.00 0.00 74 1014.3
20260506011004 16 131 8.0 20.9 0.00 0.00 0.00 74 1014.3
20260506010506 16 240 8.0 20.9 0.00 0.00 0.00 74 1014.4
20260506010041 16 169 8.0 20.9 0.00 0.00 0.00 74 1014.4
20260506005504 16 130 6.4 27.4 0.00 0.00 0.00 73 1014.4
20260506005003 16 216 9.7 27.4 0.00 0.00 0.00 74 1014.4
20260506004517 16 135 6.4 20.9 0.00 0.00 0.00 73 1014.3
20260506004007 16 192 8.0 24.1 0.00 0.00 0.00 73 1014.2
20260506003503 16 194 8.0 24.1 0.00 0.00 0.00 74 1014.3
20260506003004 16 217 9.7 27.4 0.00 0.00 0.00 74 1014.3
20260506002503 16 93 4.8 30.6 0.00 0.00 0.00 72 1014.4
20260506002003 16 91 4.8 30.6 0.00 0.00 0.00 73 1014.4
20260506001508 16 135 6.4 25.7 0.00 0.00 0.00 74 1014.4
20260506001003 16 207 8.0 27.4 0.00 0.00 0.00 74 1014.5
20260506000505 16 199 8.0 27.4 0.00 0.00 0.00 74 1014.6
20260506000013 16 235 12.9 24.1 0.00 0.00 0.00 74 1014.6
20260505235508 16 200 9.7 25.7 0.00 0.00 0.00 75 1014.6
20260505235003 16 138 6.4 25.7 0.00 0.00 0.00 75 1014.6
20260505234505 16 144 11.3 27.4 0.00 0.00 0.00 75 1014.8
20260505234004 16 78 9.7 27.4 0.00 0.00 0.00 74 1014.9
20260505233503 16 212 8.0 25.7 0.00 0.00 0.00 74 1015.0
20260505233009 16 216 4.8 27.4 0.00 0.00 0.00 75 1015.0
20260505232511 16 213 8.0 27.4 0.00 0.00 0.00 74 1015.1
20260505232005 16 343 11.3 22.5 0.00 0.00 0.00 74 1015.2
20260505231513 17 261 8.0 22.5 0.00 0.00 0.00 73 1015.1
20260505231004 16 116 4.8 17.7 0.00 0.00 0.00 74 1015.2
20260505230503 16 78 6.4 17.7 0.00 0.00 0.00 75 1015.2
20260505230024 16 242 8.0 24.1 0.00 0.00 0.00 75 1015.3
20260505225506 16 255 6.4 27.4 0.00 0.00 0.00 75 1015.3
20260505225003 16 213 14.5 29.0 0.00 0.00 0.00 75 1015.3
20260505224515 16 210 12.9 29.0 0.00 0.00 0.00 75 1015.4
20260505224006 16 215 11.3 30.6 0.00 0.00 0.00 76 1015.4
20260505223505 16 199 12.9 30.6 0.00 0.00 0.00 75 1015.4
20260505223008 16 194 11.3 27.4 0.00 0.00 0.00 76 1015.4
20260505222505 16 128 11.3 27.4 0.00 0.00 0.00 76 1015.4
20260505222005 16 217 11.3 27.4 0.00 0.00 0.00 76 1015.5
20260505221510 16 207 9.7 27.4 0.00 0.00 0.00 76 1015.5
20260505221009 16 256 11.3 29.0 0.00 0.00 0.00 75 1015.6
20260505220504 16 209 9.7 29.0 0.00 0.00 0.00 77 1015.5
20260505220026 16 227 14.5 27.4 0.00 0.00 0.00 76 1015.5
20260505215504 16 217 14.5 25.7 0.00 0.00 0.00 75 1015.6
20260505215007 16 178 6.4 24.1 0.00 0.00 0.00 75 1015.6
20260505214523 16 186 6.4 24.1 0.00 0.00 0.00 78 1015.5
20260505214003 16 139 9.7 24.1 0.00 0.00 0.00 76 1015.4
20260505213506 16 186 8.0 27.4 0.00 0.00 0.00 77 1015.5
20260505213020 16 217 12.9 27.4 0.00 0.00 0.00 76 1015.5
20260505212511 16 159 8.0 25.7 0.00 0.00 0.00 77 1015.5
20260505212008 16 210 9.7 25.7 0.00 0.00 0.00 75 1015.7
20260505211521 16 184 14.5 33.8 0.00 0.00 0.00 76 1015.7
20260505211005 15 306 4.8 33.8 0.00 0.00 0.00 77 1015.7
20260505210503 15 207 11.3 30.6 0.00 0.00 0.00 76 1015.6
20260505210017 16 245 12.9 30.6 0.00 0.00 0.00 78 1015.7
20260505205508 16 255 6.4 29.0 0.00 0.00 0.00 77 1015.7
20260505205008 15 218 8.0 29.0 0.00 0.00 0.00 79 1015.9
20260505204512 15 146 14.5 24.1 0.00 0.00 0.00 77 1015.9
20260505204006 16 215 11.3 24.1 0.00 0.00 0.00 76 1016.0
20260505203507 16 244 8.0 25.7 0.00 0.00 0.00 77 1016.1
20260505203023 16 288 9.7 25.7 0.00 0.00 0.00 76 1016.0
20260505202507 16 251 9.7 25.7 0.00 0.00 0.00 77 1015.9
20260505202008 16 207 11.3 24.1 0.00 0.00 0.00 78 1015.9
20260505201521 16 211 11.3 22.5 0.00 0.00 0.00 77 1016.0
20260505201004 16 215 8.0 22.5 0.00 0.00 0.00 77 1016.0
20260505200507 16 208 11.3 24.1 0.00 0.00 0.00 76 1016.0
20260505200022 16 190 12.9 24.1 0.00 0.00 0.00 75 1015.9
20260505195504 16 203 11.3 29.0 0.00 0.00 0.00 76 1016.0
20260505195006 16 130 11.3 29.0 0.00 0.00 0.00 77 1016.0
20260505194521 15 246 6.4 24.1 0.00 0.00 0.00 78 1016.0
20260505194007 16 226 11.3 24.1 0.00 0.00 0.00 79 1016.0
20260505193506 16 300 6.4 24.1 0.00 0.00 0.00 78 1016.0
20260505193016 15 207 8.0 24.1 0.00 0.00 0.00 78 1016.0
20260505192506 16 209 6.4 17.7 0.00 0.00 0.00 76 1016.0
20260505192009 15 181 9.7 25.7 0.00 0.00 0.00 79 1016.0
20260505191512 15 298 4.8 25.7 0.00 0.00 0.00 78 1016.0
20260505191005 15 230 8.0 22.5 0.00 0.00 0.00 79 1016.1
20260505190512 15 215 8.0 24.1 0.00 0.00 0.00 78 1016.1
20260505190017 15 256 6.4 25.7 0.00 0.00 0.00 78 1016.0
20260505185508 15 219 4.8 25.7 0.00 0.00 0.00 78 1015.9
20260505185009 15 197 8.0 24.1 0.00 0.00 0.00 80 1015.9
20260505184524 15 200 9.7 24.1 0.00 0.00 0.00 80 1016.1
20260505184007 15 229 8.0 25.7 0.00 0.00 0.00 78 1016.1
20260505183508 15 166 11.3 25.7 0.00 0.00 0.00 82 1016.2
20260505183018 15 250 6.4 22.5 0.00 0.00 0.00 78 1016.1
20260505182506 15 189 8.0 22.5 0.00 0.00 0.00 81 1016.1
20260505182008 15 207 6.4 19.3 0.00 0.00 0.00 81 1016.1
20260505181521 15 281 9.7 19.3 0.00 0.00 0.00 79 1016.0
20260505181009 15 211 8.0 19.3 0.00 0.00 0.00 80 1015.9
20260505180508 15 198 3.2 20.9 0.00 0.00 0.00 83 1015.9
20260505180021 14 267 9.7 20.9 0.00 0.00 0.00 80 1015.9
20260505175508 15 173 4.8 16.1 0.00 0.00 0.00 81 1015.9
20260505175014 14 191 4.8 16.1 0.00 0.00 0.00 82 1015.9
20260505174514 14 243 6.4 20.9 0.00 0.00 0.00 82 1016.0
20260505174012 13 242 9.7 20.9 0.00 0.00 0.00 84 1016.0
20260505173508 13 206 6.4 19.3 0.00 0.00 0.00 83 1015.9
20260505173014 13 113 8.0 19.3 0.00 0.00 0.00 84 1015.9
20260505172504 13 186 3.2 17.7 0.00 0.00 0.00 83 1015.9
20260505172008 13 223 3.2 20.9 0.00 0.00 0.00 85 1015.9
20260505171533 13 194 4.8 20.9 0.00 0.00 0.00 85 1015.9
20260505171004 13 176 8.0 14.5 0.00 0.00 0.00 85 1015.8
20260505170509 13 190 3.2 20.9 0.00 0.00 0.00 86 1015.9
20260505170021 12 209 4.8 20.9 0.00 0.00 0.00 86 1015.9
20260505165506 12 210 6.4 16.1 0.00 0.00 0.00 85 1015.9
20260505165007 12 101 9.7 16.1 0.00 0.00 0.00 86 1015.8
20260505164516 12 187 6.4 16.1 0.00 0.00 0.00 86 1015.7
20260505164008 12 191 6.4 16.1 0.00 0.00 0.00 86 1015.8
20260505163508 12 182 4.8 14.5 0.00 0.00 0.00 86 1015.8
20260505163021 12 196 6.4 12.9 0.00 0.00 0.00 86 1015.7
20260505162504 12 201 6.4 20.9 0.00 0.00 0.00 85 1015.7
20260505162008 13 157 6.4 24.1 0.00 0.00 0.00 84 1015.7
20260505161520 13 140 8.0 24.1 0.00 0.00 0.00 84 1015.7
20260505161010 13 116 6.4 22.5 0.00 0.00 0.00 84 1015.7
20260505160515 13 188 8.0 25.7 0.00 0.00 0.00 85 1015.6
20260505153022 12 121 6.4 22.5 0.00 0.00 0.00 86 1015.5
20260505152507 12 192 6.4 22.5 0.00 0.00 0.00 85 1015.4
20260505152007 12 165 4.8 24.1 0.00 0.00 0.00 86 1015.4
20260505151529 12 198 4.8 24.1 0.00 0.00 0.00 86 1015.3
20260505151011 12 186 6.4 20.9 0.00 0.00 0.00 86 1015.3
20260505150510 12 138 9.7 20.9 0.00 0.00 0.00 86 1015.3
20260505140507 12 169 6.4 19.3 0.00 0.00 0.00 87 1014.2
20260505125004 12 126 6.4 24.1 0.00 0.00 0.00 86 1013.7
20260505124519 12 182 4.8 24.1 0.00 0.00 0.00 86 1013.6
20260505124003 12 202 8.0 22.5 0.00 0.00 0.00 86 1013.6
20260505123502 12 106 6.4 27.4 0.00 0.00 0.00 86 1013.5